This is the latest recevied weather packets stored in our database for station/object KC5TIL-3. If no packets are shown the sender has not sent any weather packets the latest 10 day(s).
| Time | Temp. | Humidity | Pressure | Rain* | Wind** | Luminosity | Snow |
|---|---|---|---|---|---|---|---|
| 1777885455 | 17.22° C | 39% | 1010.8 hPa | 0 mm | 2.68 m/s, 163° | - | - |
| 1777885153 | 17.22° C | 38% | 1010.8 hPa | 0 mm | 3.13 m/s, 225° | - | - |
| 1777884850 | 17.22° C | 38% | 1010.8 hPa | 0 mm | 2.68 m/s, 204° | - | - |
| 1777883953 | 17.22° C | 37% | 1010.8 hPa | 0 mm | 3.13 m/s, 196° | - | - |
| 1777883055 | 17.22° C | 35% | 1011.8 hPa | 0 mm | 3.13 m/s, 192° | - | - |
| 1777882752 | 17.78° C | 35% | 1011.8 hPa | 0 mm | 3.58 m/s, 218° | - | - |
| 1777882455 | 17.78° C | 35% | 1011.8 hPa | 0 mm | 2.68 m/s, 174° | - | - |
| 1777882148 | 17.78° C | 34% | 1011.8 hPa | 0 mm | 3.13 m/s, 227° | - | - |
| 1777881850 | 17.78° C | 34% | 1011.8 hPa | 0 mm | 3.13 m/s, 182° | - | - |
| 1777881251 | 17.78° C | 33% | 1011.8 hPa | 0 mm | 3.13 m/s, 185° | - | - |
| 1777880952 | 18.33° C | 32% | 1011.8 hPa | 0 mm | 3.13 m/s, 148° | - | - |
| 1777880655 | 18.33° C | 31% | 1011.8 hPa | 0 mm | 3.13 m/s, 236° | - | - |
| 1777880354 | 18.33° C | 30% | 1011.8 hPa | 0 mm | 4.47 m/s, 210° | - | - |
| 1777880055 | 18.33° C | 29% | 1011.8 hPa | 0 mm | 3.58 m/s, 215° | - | - |
| 1777879455 | 18.33° C | 27% | 1011.8 hPa | 0 mm | 3.13 m/s, 202° | - | - |
| 1777879152 | 18.33° C | 26% | 1011.8 hPa | 0 mm | 4.02 m/s, 171° | - | - |
| 1777878850 | 18.89° C | 25% | 1011.8 hPa | 0 mm | 3.58 m/s, 177° | - | - |
| 1777878548 | 18.89° C | 25% | 1011.8 hPa | 0 mm | 3.13 m/s, 197° | - | - |
| 1777878251 | 18.89° C | 25% | 1011.8 hPa | 0 mm | 3.58 m/s, 195° | - | - |
| 1777877953 | 18.89° C | 25% | 1011.8 hPa | 0 mm | 3.13 m/s, 181° | - | - |
| 1777877650 | 18.89° C | 25% | 1011.8 hPa | 0 mm | 2.68 m/s, 132° | - | - |
| 1777877348 | 18.89° C | 25% | 1012.8 hPa | 0 mm | 3.13 m/s, 243° | - | - |
| 1777877050 | 18.89° C | 25% | 1012.8 hPa | 0 mm | 3.13 m/s, 165° | - | - |
| 1777876748 | 18.89° C | 25% | 1012.8 hPa | 0 mm | 3.58 m/s, 218° | - | - |
| 1777876450 | 18.89° C | 25% | 1012.8 hPa | 0 mm | 3.13 m/s, 195° | - | - |
* Rain latest hour (hover to see other rain measurements)
** Current wind speed in m/s (hover to see current wind gust speed)